EW6103 Weather Reports


time (UTC)temp
C
wind
direction
speed
KPH
gust
KPH
rain 1hr
cm
rain 24hr
cm
rain mn
cm
humidity
%
barometer
mb
20260505091006 21 135 4.8 9.7 0.00 0.00 0.00 39 1006.3
20260505084009 21 135 4.8 9.7 0.00 0.00 0.00 41 1006.6
20260505083010 21 90 4.8 9.7 0.00 0.00 0.00 42 1006.7
20260505082009 21 90 3.2 9.7 0.00 0.00 0.00 43 1006.7
20260505081009 20 180 4.8 11.3 0.00 0.00 0.00 42 1007.0
20260505080015 20 135 6.4 12.9 0.00 0.00 0.00 44 1007.0
20260505075008 20 135 6.4 12.9 0.00 0.00 0.00 43 1007.1
20260505074007 20 90 6.4 9.7 0.00 0.00 0.00 44 1007.3
20260505073009 19 135 4.8 9.7 0.00 0.00 0.00 44 1007.5
20260505072009 19 90 6.4 11.3 0.00 0.00 0.00 44 1007.4
20260505071010 18 180 6.4 11.3 0.00 0.00 0.00 44 1007.6
20260505065008 17 180 6.4 14.5 0.00 0.00 0.00 45 1007.6
20260505063010 17 135 4.8 11.3 0.00 0.00 0.00 45 1007.6
20260505061009 16 90 4.8 9.7 0.00 0.00 0.00 49 1007.5
20260505060013 16 135 6.4 12.9 0.00 0.00 0.00 49 1007.4
20260505055008 16 135 6.4 11.3 0.00 0.00 0.00 48 1007.2
20260505053009 16 135 4.8 8.0 0.00 0.00 0.00 51 1007.5
20260505051008 15 90 6.4 11.3 0.00 0.00 0.00 50 1007.4
20260505040012 12 45 0.0 1.6 0.00 0.00 0.00 70 1008.5
20260505035008 12 45 0.0 1.6 0.00 0.00 0.00 70 1008.5
20260505034008 11 0 0.0 3.2 0.00 0.00 0.00 71 1008.6
20260505033009 12 0 0.0 1.6 0.00 0.00 0.00 69 1008.4
20260505032009 12 90 1.6 3.2 0.00 0.00 0.00 70 1008.5
20260505031009 12 90 1.6 3.2 0.00 0.00 0.00 73 1008.8
20260505030017 12 0 1.6 3.2 0.00 0.00 0.00 71 1008.8
20260505025007 12 45 1.6 4.8 0.00 0.00 0.00 69 1008.9
20260505024007 12 0 1.6 4.8 0.00 0.00 0.00 72 1009.1
20260505023010 11 45 1.6 4.8 0.00 0.00 0.00 75 1009.2
20260505022007 11 0 0.0 1.6 0.00 0.00 0.00 74 1009.2
20260505021009 11 45 0.0 3.2 0.00 0.00 0.00 72 1009.4
20260505015008 11 45 1.6 6.4 0.00 0.00 0.00 75 1009.8
20260505012009 11 180 0.0 1.6 0.00 0.00 0.00 75 1010.0
20260505011008 11 0 1.6 6.4 0.00 0.00 0.00 73 1010.0
20260505002008 14 45 0.0 1.6 0.00 0.00 0.00 64 1010.1
20260505000011 15 45 1.6 3.2 0.00 0.00 0.00 62 1010.0
20260504235007 15 45 1.6 4.8 0.00 0.00 0.00 62 1010.1
20260504234009 15 90 1.6 4.8 0.00 0.00 0.00 65 1010.0
20260504233009 15 135 3.2 6.4 0.00 0.00 0.00 65 1009.9
20260504232008 14 45 3.2 4.8 0.00 0.00 0.00 67 1009.9
20260504231005 13 90 1.6 4.8 0.00 0.00 0.00 69 1010.2
20260504230015 13 90 1.6 3.2 0.00 0.00 0.00 69 1010.3
20260504225007 13 45 1.6 4.8 0.00 0.00 0.00 71 1010.4
20260504224008 12 45 1.6 3.2 0.00 0.00 0.00 72 1010.5
20260504223010 12 45 0.0 1.6 0.00 0.00 0.00 76 1010.7
20260504222008 12 45 1.6 3.2 0.00 0.00 0.00 77 1010.8
20260504221006 12 45 0.0 1.6 0.00 0.00 0.00 77 1010.7
20260504220011 12 45 1.6 3.2 0.00 0.00 0.00 76 1010.7
20260504215006 13 0 3.2 4.8 0.00 0.00 0.00 73 1010.8
20260504214009 13 0 1.6 4.8 0.00 0.00 0.00 71 1010.7
20260504213009 13 90 0.0 3.2 0.00 0.00 0.00 75 1010.8
20260504212009 13 90 0.0 1.6 0.00 0.00 0.00 75 1010.9
20260504210012 14 180 0.0 1.6 0.00 0.00 0.00 73 1010.9
20260504205009 14 45 1.6 4.8 0.00 0.00 0.00 72 1010.8
20260504204008 15 0 1.6 6.4 0.00 0.00 0.00 71 1010.8
20260504202008 15 0 0.0 3.2 0.00 0.00 0.00 70 1010.7
20260504201007 15 135 1.6 6.4 0.00 0.00 0.00 70 1010.8
20260504200013 15 90 0.0 1.6 0.00 0.00 0.00 73 1010.7
20260504195009 15 0 0.0 1.6 0.00 0.00 0.00 72 1010.6
20260504194009 15 0 0.0 3.2 0.00 0.00 0.00 69 1010.5
20260504193010 15 0 0.0 1.6 0.00 0.00 0.00 71 1010.8
20260504192009 16 90 0.0 1.6 0.00 0.00 0.00 70 1010.7
20260504191007 16 45 0.0 1.6 0.00 0.00 0.00 70 1010.6
20260504190013 16 0 0.0 1.6 0.00 0.00 0.00 69 1010.4
20260504185009 17 0 0.0 1.6 0.00 0.00 0.00 68 1010.3
20260504184009 17 0 0.0 3.2 0.00 0.00 0.00 66 1010.2
20260504183010 17 0 0.0 3.2 0.00 0.00 0.00 66 1010.3
20260504182009 17 90 0.0 1.6 0.00 0.00 0.00 64 1010.3
20260504181006 18 0 1.6 3.2 0.00 0.00 0.00 63 1010.1
20260504180012 18 270 0.0 3.2 0.00 0.00 0.00 63 1010.1
20260504175008 19 0 0.0 1.6 0.00 0.00 0.00 62 1009.9
20260504174008 20 0 1.6 3.2 0.00 0.00 0.00 59 1009.8
20260504173010 20 0 0.0 3.2 0.00 0.00 0.00 60 1009.8
20260504171009 21 0 1.6 3.2 0.00 0.00 0.00 58 1009.8
20260504151008 24 270 0.0 4.8 0.00 0.00 0.00 39 1009.9
20260504141006 25 270 1.6 3.2 0.00 0.00 0.00 40 1010.2